Notices

What's New in latest Release from April 7th, 2021:

- Updated Glossary, including Speed of Maximum Gust, and Total Hourly Precipitation

- Updated national and regional climate services offices contacts and prices information

- Addition of station inventory lists for 1981-2010, 1971-2000, and 1961-1990 Normals.

If you haven't already, please take our survey and provide feedback about our website: https://eccc.sondage-survey.ca/f/LanguageSelection.aspx?s=442ca660-fcf1-47c0-95a9-59707d6fd709

Hourly Data Report for October 28, 2019

QUALICUM BEACH AIRPORT
BRITISH COLUMBIA
Current Station Operator: ECCC - MSC

49°20'14.000" N
124°23'38.000" W
58.20 m
1026562
71766
VOQ

Download Data

Hourly Data (October 2019)
Hourly Data Report for October 28, 2019
TIME
LST
Temp Definition
°C
Dew Point Definition
°C
Rel Hum Definition
%
Precip. Amount Definition
mm

Wind Dir Definition
10's deg

Wind Spd Definition
km/h
Visibility Definition
km
Stn Press Definition
kPa
Hmdx Definition


Wind Chill Definition


Weather Definition


00:00 2.6 0.0 83 0.0 26 7   102.06     LegendNANA
01:00 1.2 -0.6 88 0.0 26 3   101.98     LegendNANA
02:00 0.9 -0.6 90 0.0 27 5   101.97     LegendNANA
03:00 2.1 -0.3 84 0.0 25 7   101.85     LegendNANA
04:00 0.8 -0.8 89 0.0 26 6   101.80     LegendNANA
05:00 0.7 -0.4 93 0.0 26 6   101.79     LegendNANA
06:00 0.9 -0.3 92 0.0 26 5   101.73     LegendNANA
07:00 3.4 1.4 87 0.0 23 6   101.75     LegendNANA
08:00 3.4 1.7 89 0.0 26 4   101.73     LegendNANA
09:00 6.5 2.0 73 0.0 28 7   101.77     LegendNANA
10:00 7.1 2.6 73 0.0 27 5   101.75     LegendNANA
11:00 7.9 2.7 69 0.0 29 6   101.78     LegendNANA
12:00 8.9 3.1 67 0.0 31 13   101.74     LegendNANA
13:00 8.6 3.1 68 0.0 31 9   101.68     LegendNANA
14:00 9.1 3.2 67 0.0 33 11   101.63     LegendNANA
15:00 9.0 3.3 68 0.0 30 13   101.63     LegendNANA
16:00 9.1 3.9 70 0.0 27 7   101.64     LegendNANA
17:00 6.9 3.6 80 0.0 28 3   101.66     LegendNANA
18:00 6.1 3.9 86 0.0 23 7   101.69     LegendNANA
19:00 4.3 2.6 89 0.0 26 3   101.74     LegendNANA
20:00 3.3 1.5 88 0.0 23 5   101.83     LegendNANA
21:00 2.0 1.3 95 0.0 17 2   101.94     LegendNANA
22:00 1.6 0.8 95 0.0 22 2   102.00     LegendNANA
23:00 0.7 0.3 97 0.0 22 2   102.11     LegendNANA

Notes on Data Quality.

Legend

  • E = Estimated
  • M = Missing
  • NA = Not Available*
  • [empty] = Indicates an unobserved value
Date modified: